CDT,Max TemperatureF,Mean TemperatureF,Min TemperatureF,Max Dew PointF,MeanDew PointF,Min DewpointF,Max Humidity, Mean Humidity, Min Humidity, Max Sea Level PressureIn, Mean Sea Level PressureIn, Min Sea Level PressureIn, Max VisibilityMiles, Mean VisibilityMiles, Min VisibilityMiles, Max Wind SpeedMPH, Mean Wind SpeedMPH, Max Gust SpeedMPH,PrecipitationIn, CloudCover, Events, WindDirDegrees
2012-9-1,80,76,72,73,71,70,93,87,74,30.07,30.00,29.93,10,8,1,15,7,21,1.86,6,Rain,80
2012-9-2,84,78,72,72,71,68,91,83,66,29.93,29.88,29.84,10,9,2,17,11,24,0.34,6,Rain,71
2012-9-3,88,79,70,71,69,68,92,77,53,29.93,29.90,29.87,10,9,4,12,5,18,0.11,3,,38
2012-9-4,90,79,68,72,67,60,94,73,37,29.92,29.88,29.84,10,8,1,8,1,,0.00,1,,85
2012-9-5,83,74,65,66,64,60,90,75,53,29.96,29.85,29.79,10,10,7,20,9,38,0.03,1,Rain,167
2012-9-6,85,74,62,67,59,49,94,66,30,29.96,29.91,29.86,10,9,4,9,4,22,0.00,1,,277
2012-9-7,75,68,60,68,62,54,94,85,66,30.00,29.85,29.75,10,9,2,15,5,31,1.19,4,Rain,304
2012-9-8,72,63,54,54,50,44,90,66,37,29.94,29.89,29.84,10,10,10,15,7,22,0.00,2,Rain,294
2012-9-9,73,62,50,54,52,49,94,74,43,30.17,30.03,29.85,10,10,7,9,5,18,0.00,3,Rain,352
2012-9-10,76,62,47,53,48,46,95,65,36,30.26,30.18,30.12,10,10,10,10,2,,0.00,0,,154
2012-9-11,82,66,49,56,52,46,89,61,33,30.21,30.15,30.10,10,10,10,16,7,23,0.00,0,,181
2012-9-12,84,70,56,59,54,51,85,61,31,30.21,30.16,30.11,10,10,10,15,7,22,0.00,0,,187
2012-9-13,81,68,56,61,57,53,91,71,42,30.32,30.24,30.19,10,10,5,16,6,23,0.03,6,Rain,260
2012-9-14,73,62,49,54,49,38,94,70,29,30.38,30.33,30.30,10,9,4,7,4,,0.18,2,Rain,330
2012-9-15,77,61,45,52,45,38,90,59,25,30.34,30.26,30.16,10,10,10,9,2,,0.00,0,,292
2012-9-16,77,61,45,53,48,43,93,62,32,30.16,30.09,30.00,10,10,10,10,4,16,0.00,0,,198
2012-9-17,77,64,51,62,55,49,94,77,50,30.01,29.88,29.76,10,9,5,12,2,20,0.13,5,Rain,233
2012-9-18,63,52,40,54,39,30,88,59,29,30.06,29.93,29.79,10,10,10,15,9,23,0.00,4,,310
2012-9-19,72,53,35,43,38,34,95,57,29,30.12,30.02,29.90,10,10,10,24,7,31,0.00,0,,189
2012-9-20,72,59,46,50,41,32,84,50,23,29.97,29.92,29.88,10,10,10,18,11,25,0.00,1,,251
2012-9-21,66,54,42,50,44,38,95,72,38,29.96,29.89,29.78,10,10,0,14,4,17,0.02,3,Fog-Rain,53
2012-9-22,58,50,41,49,39,32,97,71,40,30.20,30.01,29.82,10,7,0,24,6,32,0.01,4,Fog,275
2012-9-23,62,48,34,41,33,27,93,63,27,30.28,30.24,30.19,10,10,10,16,5,21,0.00,1,,280
2012-9-24,71,50,31,39,32,28,96,54,23,30.26,30.13,29.96,10,10,10,20,5,25,0.00,0,,210
2012-9-25,74,62,51,61,53,39,94,70,59,29.96,29.90,29.85,10,10,5,14,6,20,0.00,5,,186
2012-9-26,74,65,57,63,57,47,95,78,54,30.15,30.01,29.89,10,8,0,12,5,17,0.00,6,Fog,51
2012-9-27,69,60,50,47,44,38,85,58,33,30.21,30.17,30.13,10,10,2,8,5,,0.00,2,,349
2012-9-28,70,56,43,52,47,41,91,72,44,30.17,30.14,30.10,10,10,10,16,5,20,0.00,2,,343
2012-9-29,77,58,40,48,42,37,100,63,23,30.14,30.06,29.95,10,7,0,10,2,,0.00,0,Fog,306
2012-9-30,69,56,43,52,44,37,96,68,33,30.00,29.95,29.91,10,9,1,15,4,20,0.00,0,,13